Time,TemperatureF,DewpointF,PressureIn,WindDirection,WindDirectionDegrees,WindSpeedMPH,WindSpeedGustMPH,Humidity,HourlyPrecipIn,Conditions,Clouds,dailyrainin,SoftwareType,DateUTC
2013-05-21 00:01:00,60.6,35.3,29.81,SSW,202,0.0,0.0,39,0.00,,,0.00,WUHU21623XXSP,2013-05-21 07:01:00,
2013-05-21 00:06:00,60.4,35.1,29.81,SSW,202,0.0,0.0,39,0.00,,,0.00,WUHU21623XXSP,2013-05-21 07:06:00,
2013-05-21 00:11:00,60.8,35.5,29.81,SSW,202,0.0,4.0,39,0.00,,,0.00,WUHU21623XXSP,2013-05-21 07:11:00,
2013-05-21 00:16:00,60.8,35.5,29.81,SSW,202,0.0,4.0,39,0.00,,,0.00,WUHU21623XXSP,2013-05-21 07:16:00,
2013-05-21 00:21:00,60.2,35.0,29.81,SSW,202,0.0,0.0,39,0.00,,,0.00,WUHU21623XXSP,2013-05-21 07:21:00,
2013-05-21 00:26:00,59.7,34.5,29.80,SSW,202,0.0,0.0,39,0.00,,,0.00,WUHU21623XXSP,2013-05-21 07:26:00,
2013-05-21 00:31:00,59.2,34.7,29.80,SSW,202,0.0,0.0,40,0.00,,,0.00,WUHU21623XXSP,2013-05-21 07:31:00,
2013-05-21 00:36:00,58.6,34.2,29.80,SSW,202,0.0,0.0,40,0.00,,,0.00,WUHU21623XXSP,2013-05-21 07:36:00,
2013-05-21 00:41:00,58.4,34.0,29.80,SSW,202,0.0,0.0,40,0.00,,,0.00,WUHU21623XXSP,2013-05-21 07:41:00,
2013-05-21 00:46:00,58.1,33.7,29.79,SW,225,0.0,0.0,40,0.00,,,0.00,WUHU21623XXSP,2013-05-21 07:46:00,
2013-05-21 00:51:00,58.1,34.4,29.79,SW,225,0.0,0.0,41,0.00,,,0.00,WUHU21623XXSP,2013-05-21 07:51:00,
2013-05-21 00:56:00,58.1,33.7,29.79,WSW,247,0.0,0.0,40,0.00,,,0.00,WUHU21623XXSP,2013-05-21 07:56:00,
2013-05-21 01:01:00,58.1,33.7,29.79,WSW,247,4.3,4.7,40,0.00,,,0.00,WUHU21623XXSP,2013-05-21 08:01:00,
2013-05-21 01:06:00,57.5,33.8,29.79,West,270,3.6,5.8,41,0.00,,,0.00,WUHU21623XXSP,2013-05-21 08:06:00,
2013-05-21 01:11:00,56.8,33.2,29.79,West,270,0.0,5.8,41,0.00,,,0.00,WUHU21623XXSP,2013-05-21 08:11:00,
2013-05-21 01:16:00,56.8,33.2,29.79,West,270,0.0,4.5,41,0.00,,,0.00,WUHU21623XXSP,2013-05-21 08:16:00,
2013-05-21 01:21:00,56.3,33.4,29.79,WSW,247,0.0,0.0,42,0.00,,,0.00,WUHU21623XXSP,2013-05-21 08:21:00,
2013-05-21 01:26:00,55.9,33.6,29.79,SW,225,0.0,0.0,43,0.00,,,0.00,WUHU21623XXSP,2013-05-21 08:26:00,
2013-05-21 01:31:00,55.4,33.7,29.79,SW,225,0.0,0.0,44,0.00,,,0.00,WUHU21623XXSP,2013-05-21 08:31:00,
2013-05-21 01:36:00,55.4,33.7,29.79,SW,225,0.0,0.0,44,0.00,,,0.00,WUHU21623XXSP,2013-05-21 08:36:00,
2013-05-21 01:41:00,55.7,34.0,29.79,SW,225,0.0,0.0,44,0.00,,,0.00,WUHU21623XXSP,2013-05-21 08:41:00,
2013-05-21 01:46:00,56.3,34.6,29.79,SW,225,0.0,0.0,44,0.00,,,0.00,WUHU21623XXSP,2013-05-21 08:46:00,
2013-05-21 01:51:00,56.1,34.4,29.79,SW,225,0.0,0.0,44,0.00,,,0.00,WUHU21623XXSP,2013-05-21 08:51:00,
2013-05-21 01:56:00,55.9,34.2,29.79,SW,225,0.0,0.0,44,0.00,,,0.00,WUHU21623XXSP,2013-05-21 08:56:00,
2013-05-21 02:01:00,55.6,33.9,29.78,SW,225,0.0,0.0,44,0.00,,,0.00,WUHU21623XXSP,2013-05-21 09:01:00,
2013-05-21 02:05:00,54.8,33.8,29.78,SW,225,3.6,5.4,45,0.00,,,0.00,WUHU21623XXSP,2013-05-21 09:05:00,
2013-05-21 02:10:00,54.3,33.9,29.78,SSW,202,3.6,5.4,46,0.00,,,0.00,WUHU21623XXSP,2013-05-21 09:10:00,
2013-05-21 02:15:00,53.9,34.1,29.78,SW,225,3.4,5.1,47,0.00,,,0.00,WUHU21623XXSP,2013-05-21 09:15:00,
2013-05-21 02:20:00,53.6,33.8,29.79,SW,225,1.1,5.1,47,0.00,,,0.00,WUHU21623XXSP,2013-05-21 09:20:00,
2013-05-21 02:25:00,53.4,34.1,29.78,SW,225,4.9,6.0,48,0.00,,,0.00,WUHU21623XXSP,2013-05-21 09:25:00,
2013-05-21 02:30:00,53.6,34.3,29.78,SW,225,0.0,6.0,48,0.00,,,0.00,WUHU21623XXSP,2013-05-21 09:30:00,
2013-05-21 02:35:00,53.8,34.5,29.78,SW,225,0.0,5.4,48,0.00,,,0.00,WUHU21623XXSP,2013-05-21 09:35:00,
2013-05-21 02:40:00,53.4,34.7,29.78,SSW,202,0.0,4.0,49,0.00,,,0.00,WUHU21623XXSP,2013-05-21 09:40:00,
2013-05-21 02:45:00,53.0,33.8,29.78,SSW,202,0.0,0.0,48,0.00,,,0.00,WUHU21623XXSP,2013-05-21 09:45:00,
2013-05-21 02:50:00,52.7,34.0,29.78,SSW,202,4.5,4.5,49,0.00,,,0.00,WUHU21623XXSP,2013-05-21 09:50:00,
2013-05-21 02:53:00,52.5,34.9,29.78,South,180,4.5,6.3,51,0.00,,,0.00,WUHU21623XXSP,2013-05-21 09:53:00,
2013-05-21 02:59:00,52.1,34.5,29.77,South,180,0.0,6.3,51,0.00,,,0.00,WUHU21623XXSP,2013-05-21 09:59:00,
2013-05-21 03:05:00,52.1,34.0,29.77,South,180,0.0,4.7,50,0.00,,,0.00,WUHU21623XXSP,2013-05-21 10:05:00,
2013-05-21 03:11:00,52.3,33.7,29.77,South,180,0.0,0.0,49,0.00,,,0.00,WUHU21623XXSP,2013-05-21 10:11:00,
2013-05-21 03:23:00,52.7,33.5,29.78,South,180,0.0,0.0,48,0.00,,,0.00,WUHU21623XXSP,2013-05-21 10:23:00,
2013-05-21 03:28:00,53.6,34.3,29.78,SW,225,0.0,1.1,48,0.00,,,0.00,WUHU21623XXSP,2013-05-21 10:28:00,
2013-05-21 03:33:00,53.6,34.9,29.77,SW,225,2.2,4.0,49,0.00,,,0.00,WUHU21623XXSP,2013-05-21 10:33:00,
2013-05-21 03:38:00,53.6,34.9,29.78,SW,225,0.0,4.0,49,0.00,,,0.00,WUHU21623XXSP,2013-05-21 10:38:00,
2013-05-21 03:43:00,53.2,34.0,29.78,SW,225,0.0,0.0,48,0.00,,,0.00,WUHU21623XXSP,2013-05-21 10:43:00,
2013-05-21 03:48:00,53.0,33.8,29.78,SW,225,0.0,0.0,48,0.00,,,0.00,WUHU21623XXSP,2013-05-21 10:48:00,
2013-05-21 03:53:00,52.7,33.5,29.77,South,180,0.0,0.0,48,0.00,,,0.00,WUHU21623XXSP,2013-05-21 10:53:00,
2013-05-21 03:58:00,52.5,33.3,29.78,SE,135,0.0,0.0,48,0.00,,,0.00,WUHU21623XXSP,2013-05-21 10:58:00,
2013-05-21 04:03:00,52.5,33.3,29.77,SE,135,0.0,0.0,48,0.00,,,0.00,WUHU21623XXSP,2013-05-21 11:03:00,
2013-05-21 04:08:00,52.5,33.3,29.78,SSE,157,0.0,0.0,48,0.00,,,0.00,WUHU21623XXSP,2013-05-21 11:08:00,
2013-05-21 04:13:00,52.5,33.8,29.78,SW,225,0.0,0.0,49,0.00,,,0.00,WUHU21623XXSP,2013-05-21 11:13:00,
2013-05-21 04:18:00,52.7,34.0,29.78,SW,225,3.8,5.8,49,0.00,,,0.00,WUHU21623XXSP,2013-05-21 11:18:00,
2013-05-21 04:23:00,53.0,34.3,29.78,WSW,247,6.3,7.6,49,0.00,,,0.00,WUHU21623XXSP,2013-05-21 11:23:00,
2013-05-21 04:28:00,53.2,35.0,29.78,WSW,247,0.0,7.6,50,0.00,,,0.00,WUHU21623XXSP,2013-05-21 11:28:00,
2013-05-21 04:33:00,53.0,34.8,29.77,West,270,0.0,7.2,50,0.00,,,0.00,WUHU21623XXSP,2013-05-21 11:33:00,
2013-05-21 04:38:00,53.0,34.8,29.78,West,270,0.7,7.2,50,0.00,,,0.00,WUHU21623XXSP,2013-05-21 11:38:00,
2013-05-21 04:43:00,53.0,34.8,29.78,West,270,5.6,6.0,50,0.00,,,0.00,WUHU21623XXSP,2013-05-21 11:43:00,
2013-05-21 04:48:00,53.0,34.8,29.78,WNW,292,4.5,8.5,50,0.00,,,0.00,WUHU21623XXSP,2013-05-21 11:48:00,
2013-05-21 04:53:00,52.9,34.7,29.78,West,270,4.5,8.5,50,0.00,,,0.00,WUHU21623XXSP,2013-05-21 11:53:00,
2013-05-21 04:58:00,52.9,35.3,29.78,West,270,3.1,8.3,51,0.00,,,0.00,WUHU21623XXSP,2013-05-21 11:58:00,
2013-05-21 05:03:00,53.0,35.3,29.79,WSW,247,0.0,5.8,51,0.00,,,0.00,WUHU21623XXSP,2013-05-21 12:03:00,
2013-05-21 05:08:00,53.0,35.3,29.78,WSW,247,0.0,4.9,51,0.00,,,0.00,WUHU21623XXSP,2013-05-21 12:08:00,
2013-05-21 05:13:00,53.2,35.5,29.79,WSW,247,0.0,4.7,51,0.00,,,0.00,WUHU21623XXSP,2013-05-21 12:13:00,
2013-05-21 05:18:00,53.2,36.0,29.79,SW,225,0.0,4.7,52,0.00,,,0.00,WUHU21623XXSP,2013-05-21 12:18:00,
2013-05-21 05:23:00,53.2,35.5,29.79,SW,225,0.0,0.0,51,0.00,,,0.00,WUHU21623XXSP,2013-05-21 12:23:00,
2013-05-21 05:28:00,53.4,35.7,29.79,WSW,247,0.0,0.0,51,0.00,,,0.00,WUHU21623XXSP,2013-05-21 12:28:00,
2013-05-21 05:33:00,53.6,35.9,29.80,WSW,247,0.0,0.0,51,0.00,,,0.00,WUHU21623XXSP,2013-05-21 12:33:00,
2013-05-21 05:38:00,53.2,35.5,29.79,WSW,247,0.0,0.0,51,0.00,,,0.00,WUHU21623XXSP,2013-05-21 12:38:00,
2013-05-21 05:43:00,53.0,35.3,29.80,WSW,247,0.0,0.0,51,0.00,,,0.00,WUHU21623XXSP,2013-05-21 12:43:00,
2013-05-21 05:48:00,52.7,34.6,29.80,WSW,247,0.0,0.0,50,0.00,,,0.00,WUHU21623XXSP,2013-05-21 12:48:00,
2013-05-21 05:53:00,52.5,34.9,29.80,SSW,202,0.0,0.0,51,0.00,,,0.00,WUHU21623XXSP,2013-05-21 12:53:00,
2013-05-21 05:58:00,52.3,36.2,29.80,SSW,202,0.0,0.0,54,0.00,,,0.00,WUHU21623XXSP,2013-05-21 12:58:00,
2013-05-21 06:03:00,52.1,36.0,29.80,SSW,202,0.0,0.0,54,0.00,,,0.00,WUHU21623XXSP,2013-05-21 13:03:00,
2013-05-21 06:08:00,52.1,36.5,29.80,SSW,202,0.0,0.0,55,0.00,,,0.00,WUHU21623XXSP,2013-05-21 13:08:00,
2013-05-21 06:13:00,51.8,36.7,29.81,South,180,0.0,0.0,56,0.00,,,0.00,WUHU21623XXSP,2013-05-21 13:13:00,
2013-05-21 06:18:00,51.8,37.1,29.81,South,180,0.0,0.9,57,0.00,,,0.00,WUHU21623XXSP,2013-05-21 13:18:00,
2013-05-21 06:23:00,52.0,37.3,29.81,SW,225,0.0,0.9,57,0.00,,,0.00,WUHU21623XXSP,2013-05-21 13:23:00,
2013-05-21 06:28:00,52.0,37.3,29.81,SW,225,0.0,5.6,57,0.00,,,0.00,WUHU21623XXSP,2013-05-21 13:28:00,
2013-05-21 06:33:00,52.1,36.9,29.81,SW,225,0.0,5.6,56,0.00,,,0.00,WUHU21623XXSP,2013-05-21 13:33:00,
2013-05-21 06:38:00,52.5,37.3,29.81,SSW,202,5.8,5.8,56,0.00,,,0.00,WUHU21623XXSP,2013-05-21 13:38:00,
2013-05-21 06:43:00,53.0,37.8,29.81,SW,225,0.0,5.8,56,0.00,,,0.00,WUHU21623XXSP,2013-05-21 13:43:00,
2013-05-21 06:48:00,53.0,38.2,29.81,SW,225,0.0,4.9,57,0.00,,,0.00,WUHU21623XXSP,2013-05-21 13:48:00,
2013-05-21 06:53:00,53.2,38.0,29.81,SW,225,0.0,0.0,56,0.00,,,0.00,WUHU21623XXSP,2013-05-21 13:53:00,
2013-05-21 06:58:00,53.6,38.3,29.82,SW,225,0.0,0.0,56,0.00,,,0.00,WUHU21623XXSP,2013-05-21 13:58:00,
2013-05-21 07:03:00,53.6,38.8,29.82,WSW,247,0.0,4.9,57,0.00,,,0.00,WUHU21623XXSP,2013-05-21 14:03:00,
2013-05-21 07:08:00,53.6,39.3,29.82,WSW,247,0.0,4.9,58,0.00,,,0.00,WUHU21623XXSP,2013-05-21 14:08:00,
2013-05-21 07:13:00,53.6,39.3,29.82,West,270,0.0,0.0,58,0.00,,,0.00,WUHU21623XXSP,2013-05-21 14:13:00,
2013-05-21 07:18:00,53.6,39.7,29.82,West,270,0.0,0.0,59,0.00,,,0.00,WUHU21623XXSP,2013-05-21 14:18:00,
2013-05-21 07:23:00,53.8,40.3,29.83,West,270,5.1,7.8,60,0.00,,,0.00,WUHU21623XXSP,2013-05-21 14:23:00,
2013-05-21 07:28:00,53.9,40.4,29.82,WSW,247,5.4,7.8,60,0.00,,,0.00,WUHU21623XXSP,2013-05-21 14:28:00,
2013-05-21 07:33:00,54.1,40.6,29.83,West,270,3.8,8.5,60,0.00,,,0.00,WUHU21623XXSP,2013-05-21 14:33:00,
2013-05-21 07:38:00,54.3,42.5,29.83,SW,225,5.4,8.7,64,0.00,,,0.00,WUHU21623XXSP,2013-05-21 14:38:00,
2013-05-21 07:43:00,54.5,42.7,29.83,SW,225,10.3,10.3,64,0.00,,,0.00,WUHU21623XXSP,2013-05-21 14:43:00,
2013-05-21 07:48:00,54.8,43.0,29.83,SW,225,8.1,10.3,64,0.00,,,0.00,WUHU21623XXSP,2013-05-21 14:48:00,
2013-05-21 07:53:00,55.2,42.5,29.83,WSW,247,10.1,10.5,62,0.00,,,0.00,WUHU21623XXSP,2013-05-21 14:53:00,
2013-05-21 07:58:00,55.7,42.6,29.84,West,270,6.7,12.1,61,0.00,,,0.00,WUHU21623XXSP,2013-05-21 14:58:00,
2013-05-21 08:03:00,56.3,42.7,29.83,West,270,6.7,12.5,60,0.00,,,0.00,WUHU21623XXSP,2013-05-21 15:03:00,
2013-05-21 08:08:00,56.8,42.7,29.83,SW,225,5.6,12.5,59,0.00,,,0.00,WUHU21623XXSP,2013-05-21 15:08:00,
2013-05-21 08:13:00,56.8,42.3,29.83,SW,225,5.4,11.4,58,0.00,,,0.00,WUHU21623XXSP,2013-05-21 15:13:00,
2013-05-21 08:18:00,57.5,42.9,29.83,SW,225,6.9,12.8,58,0.00,,,0.00,WUHU21623XXSP,2013-05-21 15:18:00,
2013-05-21 08:23:00,57.7,42.7,29.84,WSW,247,4.3,12.8,57,0.00,,,0.00,WUHU21623XXSP,2013-05-21 15:23:00,
2013-05-21 08:28:00,58.1,42.6,29.83,West,270,11.4,15.2,56,0.00,,,0.00,WUHU21623XXSP,2013-05-21 15:28:00,
2013-05-21 08:33:00,57.9,42.4,29.83,WSW,247,8.7,15.2,56,0.00,,,0.00,WUHU21623XXSP,2013-05-21 15:33:00,
2013-05-21 08:38:00,58.1,42.6,29.84,West,270,9.4,15.0,56,0.00,,,0.00,WUHU21623XXSP,2013-05-21 15:38:00,
2013-05-21 08:43:00,58.8,42.7,29.84,West,270,9.6,12.5,55,0.00,,,0.00,WUHU21623XXSP,2013-05-21 15:43:00,
2013-05-21 08:48:00,59.0,42.4,29.84,WSW,247,11.0,15.2,54,0.00,,,0.00,WUHU21623XXSP,2013-05-21 15:48:00,
2013-05-21 08:53:00,59.0,42.4,29.84,West,270,13.2,17.0,54,0.00,,,0.00,WUHU21623XXSP,2013-05-21 15:53:00,
2013-05-21 08:58:00,58.8,42.7,29.84,WSW,247,13.0,17.0,55,0.00,,,0.00,WUHU21623XXSP,2013-05-21 15:58:00,
2013-05-21 09:03:00,59.0,42.9,29.84,SW,225,10.5,16.8,55,0.00,,,0.00,WUHU21623XXSP,2013-05-21 16:03:00,
2013-05-21 09:08:00,59.5,42.9,29.84,WSW,250,10.4,15.4,54,0.00,,,0.00,WUHU21623XXSP,2013-05-21 16:08:00,
2013-05-21 09:13:00,60.1,43.5,29.84,SW,225,7.8,13.4,54,0.00,,,0.00,WUHU21623XXSP,2013-05-21 16:13:00,
2013-05-21 09:18:00,60.4,43.2,29.84,WSW,247,10.3,15.0,53,0.00,,,0.00,WUHU21623XXSP,2013-05-21 16:18:00,
2013-05-21 09:23:00,61.0,43.8,29.84,WSW,247,10.5,16.3,53,0.00,,,0.00,WUHU21623XXSP,2013-05-21 16:23:00,
2013-05-21 09:28:00,61.3,44.1,29.84,WSW,247,10.7,17.9,53,0.00,,,0.00,WUHU21623XXSP,2013-05-21 16:28:00,
2013-05-21 09:33:00,61.9,44.6,29.84,WSW,247,13.4,17.9,53,0.00,,,0.00,WUHU21623XXSP,2013-05-21 16:33:00,
2013-05-21 09:38:00,62.2,44.4,29.84,West,270,15.2,17.9,52,0.00,,,0.00,WUHU21623XXSP,2013-05-21 16:38:00,
2013-05-21 09:43:00,62.6,44.8,29.84,WSW,247,12.1,19.5,52,0.00,,,0.00,WUHU21623XXSP,2013-05-21 16:43:00,
2013-05-21 09:48:00,62.8,44.4,29.84,WSW,247,11.0,19.5,51,0.00,,,0.00,WUHU21623XXSP,2013-05-21 16:48:00,
2013-05-21 09:53:00,63.1,44.7,29.84,WSW,247,9.8,16.8,51,0.00,,,0.00,WUHU21623XXSP,2013-05-21 16:53:00,
2013-05-21 09:58:00,63.3,44.9,29.84,WSW,240,11.9,17.2,51,0.00,,,0.00,WUHU21623XXSP,2013-05-21 16:58:00,
2013-05-21 10:03:00,63.5,45.1,29.84,SW,225,10.5,17.2,51,0.00,,,0.00,WUHU21623XXSP,2013-05-21 17:03:00,
2013-05-21 10:08:00,63.7,45.3,29.84,SW,225,15.4,18.1,51,0.00,,,0.00,WUHU21623XXSP,2013-05-21 17:08:00,
2013-05-21 10:13:00,63.8,45.4,29.84,SW,225,15.2,18.1,51,0.00,,,0.00,WUHU21623XXSP,2013-05-21 17:13:00,
2013-05-21 10:18:00,64.0,45.5,29.84,SW,234,13.4,17.7,51,0.00,,,0.00,WUHU21623XXSP,2013-05-21 17:18:00,
2013-05-21 10:23:00,64.4,45.9,29.84,West,270,11.9,18.1,51,0.00,,,0.00,WUHU21623XXSP,2013-05-21 17:23:00,
2013-05-21 10:28:00,64.7,45.7,29.84,SW,225,15.7,18.6,50,0.00,,,0.00,WUHU21623XXSP,2013-05-21 17:28:00,
2013-05-21 10:33:00,64.9,45.8,29.84,SW,225,13.4,19.2,50,0.00,,,0.00,WUHU21623XXSP,2013-05-21 17:33:00,
2013-05-21 10:38:00,65.3,46.2,29.85,SW,225,18.6,23.9,50,0.00,,,0.00,WUHU21623XXSP,2013-05-21 17:38:00,
2013-05-21 10:43:00,65.5,45.8,29.85,SSW,202,15.7,23.9,49,0.00,,,0.00,WUHU21623XXSP,2013-05-21 17:43:00,
2013-05-21 10:48:00,65.6,45.9,29.85,SW,219,15.2,23.5,49,0.00,,,0.00,WUHU21623XXSP,2013-05-21 17:48:00,
2013-05-21 10:53:00,65.8,46.1,29.85,SW,225,15.9,23.0,49,0.00,,,0.00,WUHU21623XXSP,2013-05-21 17:53:00,
2013-05-21 10:58:00,65.8,45.6,29.85,SW,225,17.7,23.0,48,0.00,,,0.00,WUHU21623XXSP,2013-05-21 17:58:00,
2013-05-21 11:03:00,65.8,45.6,29.86,SW,231,16.1,23.9,48,0.00,,,0.00,WUHU21623XXSP,2013-05-21 18:03:00,
2013-05-21 11:08:00,65.8,45.6,29.86,SW,225,8.9,23.9,48,0.00,,,0.00,WUHU21623XXSP,2013-05-21 18:08:00,
2013-05-21 11:13:00,66.2,45.9,29.86,SW,225,18.6,23.0,48,0.00,,,0.00,WUHU21623XXSP,2013-05-21 18:13:00,
2013-05-21 11:18:00,66.4,46.1,29.86,SSW,202,11.9,24.8,48,0.00,,,0.00,WUHU21623XXSP,2013-05-21 18:18:00,
2013-05-21 11:23:00,66.5,46.2,29.86,WSW,247,16.8,24.8,48,0.00,,,0.00,WUHU21623XXSP,2013-05-21 18:23:00,
2013-05-21 11:28:00,66.7,46.4,29.86,SW,225,11.0,24.6,48,0.00,,,0.00,WUHU21623XXSP,2013-05-21 18:28:00,
2013-05-21 11:33:00,66.7,46.4,29.86,SSW,202,16.3,23.3,48,0.00,,,0.00,WUHU21623XXSP,2013-05-21 18:33:00,
2013-05-21 11:38:00,66.7,46.4,29.86,SW,225,12.3,23.5,48,0.00,,,0.00,WUHU21623XXSP,2013-05-21 18:38:00,
2013-05-21 11:43:00,66.7,46.4,29.86,SW,225,19.0,23.5,48,0.00,,,0.00,WUHU21623XXSP,2013-05-21 18:43:00,
2013-05-21 11:48:00,66.7,46.4,29.85,SW,225,20.6,22.6,48,0.00,,,0.00,WUHU21623XXSP,2013-05-21 18:48:00,
2013-05-21 11:53:00,66.7,45.8,29.85,SSW,202,17.4,23.0,47,0.00,,,0.00,WUHU21623XXSP,2013-05-21 18:53:00,
2013-05-21 11:58:00,66.7,45.8,29.85,SW,225,16.1,26.8,47,0.00,,,0.00,WUHU21623XXSP,2013-05-21 18:58:00,
2013-05-21 12:03:00,66.7,45.8,29.85,SSW,202,25.7,26.8,47,0.00,,,0.00,WUHU21623XXSP,2013-05-21 19:03:00,
2013-05-21 12:08:00,67.1,46.2,29.85,WSW,247,15.7,25.7,47,0.00,,,0.00,WUHU21623XXSP,2013-05-21 19:08:00,
2013-05-21 12:13:00,67.3,45.8,29.85,SW,220,17.8,27.5,46,0.00,,,0.00,WUHU21623XXSP,2013-05-21 19:13:00,
2013-05-21 12:18:00,67.4,45.9,29.85,SW,225,16.6,27.5,46,0.00,,,0.00,WUHU21623XXSP,2013-05-21 19:18:00,
2013-05-21 12:23:00,67.4,45.3,29.84,SSW,202,17.4,30.6,45,0.00,,,0.00,WUHU21623XXSP,2013-05-21 19:23:00,
2013-05-21 12:28:00,67.4,45.3,29.84,SW,225,16.8,30.6,45,0.00,,,0.00,WUHU21623XXSP,2013-05-21 19:28:00,
2013-05-21 12:33:00,67.4,45.3,29.84,SSW,202,23.7,27.1,45,0.00,,,0.00,WUHU21623XXSP,2013-05-21 19:33:00,
2013-05-21 12:38:00,67.6,45.5,29.84,SW,225,17.2,27.1,45,0.00,,,0.00,WUHU21623XXSP,2013-05-21 19:38:00,
2013-05-21 12:43:00,67.6,44.8,29.84,SW,225,22.6,26.8,44,0.00,,,0.00,WUHU21623XXSP,2013-05-21 19:43:00,
2013-05-21 12:48:00,67.6,44.8,29.84,SW,215,17.7,26.8,44,0.00,,,0.00,WUHU21623XXSP,2013-05-21 19:48:00,
2013-05-21 12:53:00,68.0,45.2,29.84,SW,225,14.8,24.8,44,0.00,,,0.00,WUHU21623XXSP,2013-05-21 19:53:00,
2013-05-21 12:58:00,68.2,45.4,29.84,SW,216,17.9,24.6,44,0.00,,,0.00,WUHU21623XXSP,2013-05-21 19:58:00,
2013-05-21 13:03:00,68.3,44.9,29.84,SSW,202,21.9,25.1,43,0.00,,,0.00,WUHU21623XXSP,2013-05-21 20:03:00,
2013-05-21 13:08:00,68.3,44.2,29.84,SW,225,20.8,29.8,42,0.00,,,0.00,WUHU21623XXSP,2013-05-21 20:08:00,
2013-05-21 13:13:00,68.5,43.8,29.84,SW,225,23.3,29.8,41,0.00,,,0.00,WUHU21623XXSP,2013-05-21 20:13:00,
2013-05-21 13:18:00,68.7,43.9,29.84,SW,225,16.1,24.6,41,0.00,,,0.00,WUHU21623XXSP,2013-05-21 20:18:00,
2013-05-21 13:23:00,68.7,43.9,29.84,SW,225,20.8,26.2,41,0.00,,,0.00,WUHU21623XXSP,2013-05-21 20:23:00,
2013-05-21 13:28:00,68.9,43.5,29.84,SW,225,16.8,26.2,40,0.00,,,0.00,WUHU21623XXSP,2013-05-21 20:28:00,
2013-05-21 13:33:00,68.9,43.5,29.84,SW,225,13.6,31.1,40,0.00,,,0.00,WUHU21623XXSP,2013-05-21 20:33:00,
2013-05-21 13:38:00,68.9,42.8,29.84,SW,225,17.0,31.1,39,0.00,,,0.00,WUHU21623XXSP,2013-05-21 20:38:00,
2013-05-21 13:43:00,69.2,43.0,29.84,SW,225,12.8,26.8,39,0.00,,,0.00,WUHU21623XXSP,2013-05-21 20:43:00,
2013-05-21 13:48:00,69.2,43.0,29.84,SSW,202,18.6,26.8,39,0.00,,,0.00,WUHU21623XXSP,2013-05-21 20:48:00,
2013-05-21 13:53:00,69.4,42.5,29.84,SW,225,21.9,26.6,38,0.00,,,0.00,WUHU21623XXSP,2013-05-21 20:53:00,
2013-05-21 13:58:00,69.2,42.4,29.84,WSW,247,23.3,26.6,38,0.00,,,0.00,WUHU21623XXSP,2013-05-21 20:58:00,
2013-05-21 14:03:00,69.2,41.7,29.84,SW,225,17.2,23.9,37,0.00,,,0.00,WUHU21623XXSP,2013-05-21 21:03:00,
2013-05-21 14:08:00,69.2,41.7,29.83,SW,225,20.8,23.7,37,0.00,,,0.00,WUHU21623XXSP,2013-05-21 21:08:00,
2013-05-21 14:13:00,69.2,40.9,29.84,West,270,14.8,25.7,36,0.00,,,0.00,WUHU21623XXSP,2013-05-21 21:13:00,
2013-05-21 14:18:00,69.4,41.1,29.84,WSW,247,17.2,25.7,36,0.00,,,0.00,WUHU21623XXSP,2013-05-21 21:18:00,
2013-05-21 14:23:00,69.4,40.4,29.84,West,270,12.5,23.9,35,0.00,,,0.00,WUHU21623XXSP,2013-05-21 21:23:00,
2013-05-21 14:28:00,69.6,41.3,29.84,WSW,247,18.3,23.3,36,0.00,,,0.00,WUHU21623XXSP,2013-05-21 21:28:00,
2013-05-21 14:33:00,69.8,41.5,29.84,WSW,247,18.1,25.1,36,0.00,,,0.00,WUHU21623XXSP,2013-05-21 21:33:00,
2013-05-21 14:38:00,69.8,41.5,29.84,WSW,247,19.9,25.1,36,0.00,,,0.00,WUHU21623XXSP,2013-05-21 21:38:00,
2013-05-21 14:43:00,69.8,41.5,29.84,WSW,247,19.0,24.2,36,0.00,,,0.00,WUHU21623XXSP,2013-05-21 21:43:00,
2013-05-21 14:48:00,69.8,41.5,29.84,WSW,247,12.3,23.7,36,0.00,,,0.00,WUHU21623XXSP,2013-05-21 21:48:00,
2013-05-21 14:53:00,69.8,41.5,29.84,West,270,20.8,25.5,36,0.00,,,0.00,WUHU21623XXSP,2013-05-21 21:53:00,
2013-05-21 14:58:00,69.8,42.2,29.84,WSW,247,20.6,27.1,37,0.00,,,0.00,WUHU21623XXSP,2013-05-21 21:58:00,
2013-05-21 15:03:00,69.6,42.7,29.83,West,270,22.1,27.1,38,0.00,,,0.00,WUHU21623XXSP,2013-05-21 22:03:00,
2013-05-21 15:08:00,69.8,42.9,29.83,SW,225,16.1,27.7,38,0.00,,,0.00,WUHU21623XXSP,2013-05-21 22:08:00,
2013-05-21 15:13:00,69.8,42.2,29.83,West,270,18.1,28.9,37,0.00,,,0.00,WUHU21623XXSP,2013-05-21 22:13:00,
2013-05-21 15:18:00,69.8,42.2,29.83,WSW,247,21.0,28.9,37,0.00,,,0.00,WUHU21623XXSP,2013-05-21 22:18:00,
2013-05-21 15:23:00,70.0,41.6,29.84,West,270,20.8,26.6,36,0.00,,,0.00,WUHU21623XXSP,2013-05-21 22:23:00,
2013-05-21 15:28:00,69.8,40.7,29.84,WSW,247,19.7,26.6,35,0.00,,,0.00,WUHU21623XXSP,2013-05-21 22:28:00,
2013-05-21 15:33:00,69.4,40.4,29.84,SW,225,12.1,27.3,35,0.00,,,0.00,WUHU21623XXSP,2013-05-21 22:33:00,
2013-05-21 15:38:00,69.2,40.2,29.84,WSW,247,18.3,27.3,35,0.00,,,0.00,WUHU21623XXSP,2013-05-21 22:38:00,
2013-05-21 15:43:00,69.2,40.2,29.83,SW,225,15.2,26.8,35,0.00,,,0.00,WUHU21623XXSP,2013-05-21 22:43:00,
2013-05-21 15:48:00,68.9,39.9,29.83,SW,225,15.9,23.9,35,0.00,,,0.00,WUHU21623XXSP,2013-05-21 22:48:00,
2013-05-21 15:53:00,68.9,39.9,29.83,West,270,9.4,23.9,35,0.00,,,0.00,WUHU21623XXSP,2013-05-21 22:53:00,
2013-05-21 15:58:00,68.9,39.9,29.83,WSW,247,19.7,23.9,35,0.00,,,0.00,WUHU21623XXSP,2013-05-21 22:58:00,
2013-05-21 16:03:00,68.9,39.2,29.83,WSW,247,15.9,24.4,34,0.00,,,0.00,WUHU21623XXSP,2013-05-21 23:03:00,
2013-05-21 16:08:00,67.6,38.8,29.83,WSW,247,24.2,24.4,35,0.00,,,0.00,WUHU21623XXSP,2013-05-21 23:08:00,
2013-05-21 16:13:00,66.5,38.5,29.83,West,270,22.4,27.1,36,0.00,,,0.00,WUHU21623XXSP,2013-05-21 23:13:00,
2013-05-21 16:18:00,66.5,39.2,29.83,WSW,247,24.2,27.1,37,0.00,,,0.00,WUHU21623XXSP,2013-05-21 23:18:00,
2013-05-21 16:23:00,65.8,37.9,29.82,SW,225,18.3,25.1,36,0.00,,,0.00,WUHU21623XXSP,2013-05-21 23:23:00,
2013-05-21 16:28:00,65.6,39.1,29.82,SW,225,19.9,25.3,38,0.00,,,0.00,WUHU21623XXSP,2013-05-21 23:28:00,
2013-05-21 16:33:00,65.3,38.9,29.82,SW,225,18.8,25.3,38,0.00,,,0.00,WUHU21623XXSP,2013-05-21 23:33:00,
2013-05-21 16:38:00,65.1,39.4,29.82,SW,225,17.0,25.9,39,0.00,,,0.00,WUHU21623XXSP,2013-05-21 23:38:00,
2013-05-21 16:43:00,64.6,38.9,29.82,SW,225,21.9,25.9,39,0.00,,,0.00,WUHU21623XXSP,2013-05-21 23:43:00,
2013-05-21 16:48:00,64.7,40.3,29.82,SW,225,20.1,25.1,41,0.00,,,0.00,WUHU21623XXSP,2013-05-21 23:48:00,
2013-05-21 16:53:00,64.2,41.7,29.82,SW,225,21.0,25.1,44,0.00,,,0.00,WUHU21623XXSP,2013-05-21 23:53:00,
2013-05-21 16:58:00,64.0,41.0,29.81,SW,225,18.3,25.3,43,0.00,,,0.00,WUHU21623XXSP,2013-05-21 23:58:00,
2013-05-21 17:03:00,64.4,41.3,29.81,SW,229,17.7,25.3,43,0.00,,,0.00,WUHU21623XXSP,2013-05-22 00:03:00,
2013-05-21 17:08:00,63.7,41.3,29.81,SW,225,12.8,25.9,44,0.00,,,0.00,WUHU21623XXSP,2013-05-22 00:08:00,
2013-05-21 17:13:00,63.8,42.0,29.81,WSW,247,17.9,25.9,45,0.00,,,0.00,WUHU21623XXSP,2013-05-22 00:13:00,
2013-05-21 17:18:00,63.7,41.9,29.81,WSW,247,13.6,21.7,45,0.00,,,0.00,WUHU21623XXSP,2013-05-22 00:18:00,
2013-05-21 17:23:00,63.7,41.9,29.81,SW,225,20.1,24.2,45,0.00,,,0.00,WUHU21623XXSP,2013-05-22 00:23:00,
2013-05-21 17:28:00,64.4,41.9,29.81,SW,225,11.0,24.2,44,0.00,,,0.00,WUHU21623XXSP,2013-05-22 00:28:00,
2013-05-21 17:33:00,64.6,42.1,29.81,SW,225,16.8,23.7,44,0.00,,,0.00,WUHU21623XXSP,2013-05-22 00:33:00,
2013-05-21 17:38:00,64.7,42.2,29.81,SW,225,21.9,23.7,44,0.00,,,0.00,WUHU21623XXSP,2013-05-22 00:38:00,
2013-05-21 17:42:00,64.6,42.1,29.81,SSW,202,19.0,27.7,44,0.00,,,0.00,WUHU21623XXSP,2013-05-22 00:42:00,
2013-05-21 17:47:00,64.0,42.2,29.81,SSW,202,15.4,27.7,45,0.00,,,0.00,WUHU21623XXSP,2013-05-22 00:47:00,
2013-05-21 17:52:00,63.8,42.0,29.80,SSW,202,21.0,23.0,45,0.00,,,0.00,WUHU21623XXSP,2013-05-22 00:52:00,
2013-05-21 17:57:00,63.3,42.1,29.80,SSW,205,17.7,21.9,46,0.00,,,0.00,WUHU21623XXSP,2013-05-22 00:57:00,
2013-05-21 18:02:00,63.1,41.9,29.80,SSW,202,15.0,25.5,46,0.00,,,0.00,WUHU21623XXSP,2013-05-22 01:02:00,
2013-05-21 18:07:00,63.1,42.5,29.80,SW,225,17.4,26.4,47,0.00,,,0.00,WUHU21623XXSP,2013-05-22 01:07:00,
2013-05-21 18:12:00,62.9,42.3,29.80,SW,225,19.2,26.8,47,0.00,,,0.00,WUHU21623XXSP,2013-05-22 01:12:00,
2013-05-21 18:17:00,62.6,42.1,29.80,SSW,202,15.0,26.8,47,0.00,,,0.00,WUHU21623XXSP,2013-05-22 01:17:00,
2013-05-21 18:22:00,62.2,42.2,29.80,SSW,202,15.9,25.9,48,0.00,,,0.00,WUHU21623XXSP,2013-05-22 01:22:00,
2013-05-21 18:27:00,62.0,42.1,29.80,SSW,202,22.1,25.7,48,0.00,,,0.00,WUHU21623XXSP,2013-05-22 01:27:00,
2013-05-21 18:32:00,61.5,42.2,29.80,SW,225,15.7,24.8,49,0.00,,,0.00,WUHU21623XXSP,2013-05-22 01:32:00,
2013-05-21 18:37:00,61.1,42.3,29.80,SW,225,16.1,27.1,50,0.00,,,0.00,WUHU21623XXSP,2013-05-22 01:37:00,
2013-05-21 18:42:00,61.0,42.2,29.80,SW,225,19.7,27.1,50,0.00,,,0.00,WUHU21623XXSP,2013-05-22 01:42:00,
2013-05-21 18:47:00,60.6,42.4,29.80,SSW,202,22.6,27.3,51,0.00,,,0.00,WUHU21623XXSP,2013-05-22 01:47:00,
2013-05-21 18:52:00,60.2,42.0,29.80,SW,225,25.9,30.4,51,0.00,,,0.00,WUHU21623XXSP,2013-05-22 01:52:00,
2013-05-21 18:57:00,60.1,41.9,29.80,SW,225,24.4,30.4,51,0.00,,,0.00,WUHU21623XXSP,2013-05-22 01:57:00,
2013-05-21 19:02:00,59.5,41.9,29.80,SW,225,18.6,27.3,52,0.00,,,0.00,WUHU21623XXSP,2013-05-22 02:02:00,
2013-05-21 19:07:00,59.3,41.7,29.80,SW,225,20.4,25.3,52,0.00,,,0.00,WUHU21623XXSP,2013-05-22 02:07:00,
2013-05-21 19:12:00,59.2,42.1,29.80,SW,225,23.0,25.3,53,0.00,,,0.00,WUHU21623XXSP,2013-05-22 02:12:00,
2013-05-21 19:17:00,59.0,41.9,29.79,SSW,202,16.8,24.2,53,0.00,,,0.00,WUHU21623XXSP,2013-05-22 02:17:00,
2013-05-21 19:22:00,58.6,42.1,29.80,SW,225,19.7,24.2,54,0.00,,,0.00,WUHU21623XXSP,2013-05-22 02:22:00,
2013-05-21 19:27:00,58.6,42.1,29.80,SW,225,12.8,21.0,54,0.00,,,0.00,WUHU21623XXSP,2013-05-22 02:27:00,
2013-05-21 19:32:00,58.6,41.6,29.80,SW,225,15.0,22.6,53,0.00,,,0.00,WUHU21623XXSP,2013-05-22 02:32:00,
2013-05-21 19:37:00,59.0,41.9,29.80,SSW,202,9.8,23.3,53,0.00,,,0.00,WUHU21623XXSP,2013-05-22 02:37:00,
2013-05-21 19:42:00,59.0,41.9,29.81,SSW,202,13.2,23.3,53,0.00,,,0.00,WUHU21623XXSP,2013-05-22 02:42:00,
2013-05-21 19:47:00,58.6,41.6,29.80,SSW,202,17.0,19.7,53,0.00,,,0.00,WUHU21623XXSP,2013-05-22 02:47:00,
2013-05-21 19:52:00,58.3,41.8,29.81,SSW,202,18.1,25.9,54,0.00,,,0.00,WUHU21623XXSP,2013-05-22 02:52:00,
2013-05-21 19:57:00,57.5,41.5,29.81,SSW,202,16.3,25.9,55,0.00,,,0.00,WUHU21623XXSP,2013-05-22 02:57:00,
2013-05-21 20:02:00,57.2,41.2,29.81,SSW,202,10.3,20.8,55,0.00,,,0.00,WUHU21623XXSP,2013-05-22 03:02:00,
2013-05-21 20:07:00,56.8,41.3,29.81,SSW,202,15.9,18.3,56,0.00,,,0.00,WUHU21623XXSP,2013-05-22 03:07:00,
2013-05-21 20:12:00,56.6,41.2,29.81,SSW,202,8.3,19.7,56,0.00,,,0.00,WUHU21623XXSP,2013-05-22 03:12:00,
2013-05-21 20:17:00,56.3,40.9,29.81,SSW,202,12.8,19.7,56,0.00,,,0.00,WUHU21623XXSP,2013-05-22 03:17:00,
2013-05-21 20:22:00,56.1,41.2,29.81,SSW,202,18.6,19.5,57,0.00,,,0.00,WUHU21623XXSP,2013-05-22 03:22:00,
2013-05-21 20:27:00,56.1,41.2,29.81,SW,225,17.7,19.0,57,0.00,,,0.00,WUHU21623XXSP,2013-05-22 03:27:00,
2013-05-21 20:32:00,55.7,40.8,29.81,SSW,202,16.1,22.1,57,0.00,,,0.00,WUHU21623XXSP,2013-05-22 03:32:00,
2013-05-21 20:37:00,55.0,40.6,29.81,SSW,202,18.6,26.6,58,0.00,,,0.00,WUHU21623XXSP,2013-05-22 03:37:00,
2013-05-21 20:42:00,54.7,40.7,29.81,SSW,202,19.5,26.6,59,0.00,,,0.00,WUHU21623XXSP,2013-05-22 03:42:00,
2013-05-21 20:47:00,54.3,40.4,29.81,SW,225,19.9,22.6,59,0.00,,,0.00,WUHU21623XXSP,2013-05-22 03:47:00,
2013-05-21 20:52:00,53.9,40.4,29.81,SW,225,20.1,25.3,60,0.00,,,0.00,WUHU21623XXSP,2013-05-22 03:52:00,
2013-05-21 20:57:00,53.6,40.2,29.81,SW,225,16.1,26.6,60,0.00,,,0.00,WUHU21623XXSP,2013-05-22 03:57:00,
2013-05-21 21:01:00,53.2,39.8,29.81,SW,225,19.5,26.6,60,0.00,,,0.00,WUHU21623XXSP,2013-05-22 04:01:00,
2013-05-21 21:06:00,53.0,40.0,29.81,SW,225,22.1,26.6,61,0.00,,,0.00,WUHU21623XXSP,2013-05-22 04:06:00,
2013-05-21 21:11:00,53.0,40.0,29.81,SW,219,17.6,25.7,61,0.00,,,0.00,WUHU21623XXSP,2013-05-22 04:11:00,
2013-05-21 21:16:00,53.0,40.0,29.81,SW,225,20.8,23.3,61,0.00,,,0.00,WUHU21623XXSP,2013-05-22 04:16:00,
2013-05-21 21:21:00,52.9,39.9,29.81,SW,225,19.0,22.1,61,0.00,,,0.00,WUHU21623XXSP,2013-05-22 04:21:00,
2013-05-21 21:26:00,52.7,40.2,29.81,SW,225,17.2,22.1,62,0.00,,,0.00,WUHU21623XXSP,2013-05-22 04:26:00,
2013-05-21 21:31:00,52.5,40.0,29.81,SW,225,13.6,21.7,62,0.00,,,0.00,WUHU21623XXSP,2013-05-22 04:31:00,
2013-05-21 21:36:00,52.3,39.8,29.81,SW,225,8.3,17.4,62,0.00,,,0.00,WUHU21623XXSP,2013-05-22 04:36:00,
2013-05-21 21:41:00,52.3,39.8,29.81,SSW,202,13.0,17.0,62,0.00,,,0.00,WUHU21623XXSP,2013-05-22 04:41:00,
2013-05-21 21:46:00,52.3,39.8,29.81,SW,225,13.2,16.6,62,0.00,,,0.00,WUHU21623XXSP,2013-05-22 04:46:00,
2013-05-21 21:51:00,52.1,39.6,29.82,South,180,11.4,15.9,62,0.00,,,0.00,WUHU21623XXSP,2013-05-22 04:51:00,
2013-05-21 21:56:00,52.0,39.9,29.82,SSW,202,8.3,16.1,63,0.00,,,0.00,WUHU21623XXSP,2013-05-22 04:56:00,
2013-05-21 22:01:00,51.8,39.7,29.82,SW,225,13.4,22.4,63,0.00,,,0.00,WUHU21623XXSP,2013-05-22 05:01:00,
2013-05-21 22:06:00,51.8,39.7,29.82,SW,225,11.2,22.4,63,0.00,,,0.00,WUHU21623XXSP,2013-05-22 05:06:00,
2013-05-21 22:11:00,51.8,39.7,29.82,SW,225,9.6,16.3,63,0.00,,,0.00,WUHU21623XXSP,2013-05-22 05:11:00,
2013-05-21 22:16:00,51.8,39.7,29.83,SW,214,11.6,16.6,63,0.00,,,0.00,WUHU21623XXSP,2013-05-22 05:16:00,
2013-05-21 22:21:00,51.4,39.3,29.83,SSW,202,13.2,16.6,63,0.00,,,0.00,WUHU21623XXSP,2013-05-22 05:21:00,
2013-05-21 22:26:00,51.2,39.1,29.83,SW,225,10.3,15.4,63,0.00,,,0.00,WUHU21623XXSP,2013-05-22 05:26:00,
2013-05-21 22:31:00,51.2,39.1,29.83,SSW,202,7.6,15.4,63,0.00,,,0.00,WUHU21623XXSP,2013-05-22 05:31:00,
2013-05-21 22:36:00,51.2,39.1,29.83,SSW,205,9.5,13.6,63,0.00,,,0.00,WUHU21623XXSP,2013-05-22 05:36:00,
2013-05-21 22:41:00,50.9,38.9,29.83,SSW,202,11.0,15.4,63,0.00,,,0.00,WUHU21623XXSP,2013-05-22 05:41:00,
2013-05-21 22:46:00,50.9,38.9,29.82,South,180,9.8,15.4,63,0.00,,,0.00,WUHU21623XXSP,2013-05-22 05:46:00,
2013-05-21 22:51:00,50.9,38.9,29.82,SW,225,8.1,13.4,63,0.00,,,0.00,WUHU21623XXSP,2013-05-22 05:51:00,
2013-05-21 22:56:00,50.9,38.9,29.82,SSW,202,12.1,16.3,63,0.00,,,0.00,WUHU21623XXSP,2013-05-22 05:56:00,
2013-05-21 23:01:00,50.7,38.7,29.82,SSW,202,10.5,16.3,63,0.00,,,0.00,WUHU21623XXSP,2013-05-22 06:01:00,
2013-05-21 23:06:00,50.7,38.7,29.82,SW,225,8.7,13.6,63,0.00,,,0.00,WUHU21623XXSP,2013-05-22 06:06:00,
2013-05-21 23:11:00,50.7,38.7,29.82,SW,225,8.1,13.4,63,0.00,,,0.00,WUHU21623XXSP,2013-05-22 06:11:00,
2013-05-21 23:16:00,50.7,38.7,29.82,SW,225,10.7,13.6,63,0.00,,,0.00,WUHU21623XXSP,2013-05-22 06:16:00,
2013-05-21 23:21:00,50.9,38.9,29.82,SSW,202,12.5,13.6,63,0.00,,,0.00,WUHU21623XXSP,2013-05-22 06:21:00,
2013-05-21 23:26:00,50.9,38.9,29.82,SW,225,8.9,13.0,63,0.00,,,0.00,WUHU21623XXSP,2013-05-22 06:26:00,
2013-05-21 23:31:00,50.9,38.9,29.82,WSW,247,11.9,12.1,63,0.00,,,0.00,WUHU21623XXSP,2013-05-22 06:31:00,
2013-05-21 23:36:00,50.9,38.9,29.82,SW,225,7.4,12.1,63,0.00,,,0.00,WUHU21623XXSP,2013-05-22 06:36:00,
2013-05-21 23:41:00,50.9,38.9,29.82,SW,225,8.7,11.6,63,0.00,,,0.00,WUHU21623XXSP,2013-05-22 06:41:00,
2013-05-21 23:46:00,50.9,38.9,29.82,SSW,202,7.2,11.4,63,0.00,,,0.00,WUHU21623XXSP,2013-05-22 06:46:00,
2013-05-21 23:51:00,50.9,38.9,29.82,SW,225,8.1,11.4,63,0.00,,,0.00,WUHU21623XXSP,2013-05-22 06:51:00,
2013-05-21 23:56:00,50.5,38.5,29.82,SW,225,8.1,10.7,63,0.00,,,0.00,WUHU21623XXSP,2013-05-22 06:56:00,